Back to catalog

STARLINK-35343

AliveCommunicationsVLEO
NORAD 67334·PAYLOAD·🇺🇸 United States

Launched Jan 9, 2026 from Cape Canaveral Space Force Station

Loading…

Next Passes (next 24 hours)

TLE

FreshSource: CelesTrak SupGP

Epoch: Sep 14, 2026, 15:34 UTC

1 67334C 26003A   26257.64909722 -.00035362  00000+0 -12813-2 0  2579
2 67334  43.0003 239.9740 0001373 267.8984  41.1296 15.27584682    19

Track STARLINK-35343 in real time with AllMySat

Download on the App Store